Retour au catalogue

STARLINK-34564

ActifCommunicationsSSO
NORAD 64852·PAYLOAD·🇺🇸 United States

Lancé Jul 19, 2025 depuis Vandenberg Space Force Base

Loading…

Prochains Passages (prochaines 24 heures)

TLE

FraisSource: CelesTrak SupGP

Époque: Sep 15, 2026, 02:52 UTC

1 64852C 25152L   26258.11993056 -.00077478  00000+0 -24049-2 0  2580
2 64852  97.2844 108.8134 0001832  94.0880 258.1090 15.33480187    15

Suivez STARLINK-34564 en temps réel avec AllMySat

Download on the App Store